Station MROS1 - 8661070 - Springmaid Pier, SC Image indicating link to RSS feed of recent meteorological observations for station MROS1


Conditions at MROS1 as of
(1:30 pm EDT)
1730 GMT on 06/14/2024:
     

Click on the graph icon in the table below to see a time series plot of the last five days of that observation.

5-day plot - Wind Direction Wind Direction (WDIR): E ( 100 deg true )
5-day plot - Wind Speed Wind Speed (WSPD): 7.0 kts
5-day plot - Wind Gust Wind Gust (GST): 8.9 kts
5-day plot - Atmospheric Pressure Atmospheric Pressure (PRES):29.91 in
5-day plot - Air Temperature Air Temperature (ATMP): 83.3 °F
5-day plot - Water Temperature Water Temperature (WTMP): 80.4 °F
5-day plot - Wind Speed at 10 Meters Wind Speed at 10 meters (WSPD10M): 7.8 kts
5-day plot - Wind Speed at 20 Meters Wind Speed at 20 meters (WSPD20M): 7.8 kts
5-day plot -  Wind Speed, Wind Gust and Atmospheric Pressure Combined plot of Wind Speed, Gust, and Air Pressure
NOS Water Level Observation Network Water Level
Previous observations
TIME
(EDT)
5-day plot - Wind Direction
WDIR
 
5-day plot - Wind Speed
WSPD
kts
5-day plot - Wind Gust
GST
kts
5-day plot - Wave Height
WVHT
ft
5-day plot - Dominant Wave Period
DPD
sec
5-day plot - Average Wave Period
APD
sec
5-day plot - Mean Wave Direction
MWD
 
5-day plot - Atmospheric Pressure
PRES
in
5-day plot - Pressure Tendency
PTDY
in
5-day plot - Air Temperature
ATMP
°F
5-day plot - Water Temperature
WTMP
°F
5-day plot - Dew Point
DEWP
°F
5-day plot - Salinity
SAL
psu
5-day plot - Visibility
VIS
nmi
5-day plot - Tide (above MLLW)
TIDE
ft
2024-06-14 01:24 pm NE 7.0 12.0----29.91- 85.1 80.4----
2024-06-14 01:18 pm E 7.0 8.9----29.91- 83.5 80.6----
2024-06-14 01:12 pmENE 8.0 11.1----29.91- 83.1 80.6----
2024-06-14 01:06 pm N 6.0 8.9----29.91- 85.6 80.8----
2024-06-14 01:00 pm E 8.0 11.1----29.91-0.03 83.3 80.8----
2024-06-14 12:54 pmENE 2.9 8.9----29.91- 83.8 80.2----
2024-06-14 12:48 pmENE 7.0 8.9----29.91-- 80.2----
2024-06-14 12:42 pm NE 6.0 11.1----29.91-- 80.2----
2024-06-14 12:36 pmNNE 8.9 12.0----29.92-- 80.2----
2024-06-14 12:30 pm-------29.92- 84.9 80.2----
2024-06-14 12:24 pm-------29.93- 85.1 80.2----
2024-06-14 12:18 pmNNE 5.1 15.0----29.92- 84.7 80.4----
2024-06-14 12:12 pm NE 7.0 9.9----29.93- 84.4 80.4----
2024-06-14 12:06 pm N 5.1 12.0----29.93- 84.7 80.2----
2024-06-14 12:00 pmNNE 8.0 11.1----29.93-0.03 84.2 80.4----
2024-06-14 11:54 am N 7.0 13.0----29.93- 84.4 80.2----
2024-06-14 11:48 am N 8.0 15.0----29.93- 83.8 80.4----
2024-06-14 11:42 am N 8.0 12.0----29.94- 83.7 80.2----
2024-06-14 11:36 am N 7.0 12.0----29.94- 83.5 80.1----
2024-06-14 11:30 amNNE 8.9 12.0----29.94- 82.9-----
2024-06-14 11:24 amNNE 6.0 11.1----29.94- 82.9-----
2024-06-14 11:18 am N 7.0 12.0----29.95- 83.1 80.1----
2024-06-14 11:12 amNNE 6.0 12.0----29.94- 82.8 80.1----
2024-06-14 11:06 am N 8.0 11.1----29.94- 82.4 80.1----
2024-06-14 11:00 amNNE 8.0 9.9------- 80.1----
2024-06-14 10:54 amNNE 8.9 14.0------- 80.1----
2024-06-14 10:48 am N 8.9 12.0----29.95- 82.4 80.1----
2024-06-14 10:42 am N 6.0 8.0----29.94- 82.0 80.2----
2024-06-14 10:36 am N 6.0 11.1----29.94- 81.5 80.2----
2024-06-14 10:30 am-------29.94-- 80.2----
2024-06-14 10:24 am-------29.94-- 80.2----
2024-06-14 10:18 am N 6.0 8.9----29.94- 80.6 80.2----
2024-06-14 10:12 am N 5.1 8.0----29.94- 80.1 80.2----
2024-06-14 10:06 amNNE 6.0 9.9----29.94- 79.5 80.2----
2024-06-14 10:00 amNNE 6.0 12.0----29.94+0.00 79.2 80.2----
2024-06-14 09:54 amNNE 8.0 12.0----29.95- 78.8 80.2----
2024-06-14 09:48 am N 5.1 8.0----29.95- 79.0 80.2----
2024-06-14 09:42 am N 7.0 9.9----29.95- 79.0 80.2----
2024-06-14 09:36 amNNW 8.0 9.9----29.95- 78.4 80.2----
2024-06-14 09:30 am N 7.0 9.9----29.95- 77.9 80.2----
2024-06-14 09:24 amNNE 6.0 8.9----29.95- 78.1 80.2----
2024-06-14 09:18 am N 5.1 8.0----29.96- 77.9 80.2----
2024-06-14 09:12 am NE 7.0 8.9----29.96- 77.5 80.2----
2024-06-14 09:06 amNNE 5.1 7.0----29.96- 77.5 80.2----
2024-06-14 09:00 am NE 5.1 7.0----29.96+0.04 77.4 80.2----
2024-06-14 08:54 am N 4.1 7.0----29.96- 77.2 80.2----
2024-06-14 08:48 amNNE 5.1 8.0----29.96- 77.0 80.2----
2024-06-14 08:42 amNNE 6.0 8.0----29.96- 76.8 80.2----
2024-06-14 08:36 am N 5.1 8.0----29.96- 76.5 80.2----
2024-06-14 08:30 am N 7.0 8.9----29.96- 76.1 80.2----
2024-06-14 08:24 amNNE 5.1 8.9----29.96- 76.1 80.2----
2024-06-14 08:18 am N 6.0 7.0----29.96- 75.9 80.2----
2024-06-14 08:12 am N 6.0 7.0----29.95- 75.6 80.2----
2024-06-14 08:06 amNNE 2.9 6.0----29.95- 75.6 80.2----
2024-06-14 08:00 am N 5.1 7.0----29.95+0.03 75.2 80.2----
2024-06-14 07:54 am N 4.1 6.0----29.95- 74.8 80.2----
2024-06-14 07:48 amNNE 4.1 6.0----29.94- 74.5 80.2----
2024-06-14 07:42 am N 6.0 8.0----29.95- 73.9 80.2----
2024-06-14 07:36 am N 6.0 8.9----29.94- 73.8 80.2----
2024-06-14 07:30 am N 6.0 8.0----29.94- 73.4 80.2----
2024-06-14 07:24 am N 6.0 8.0----29.94- 73.2 80.2----
2024-06-14 07:18 am N 5.1 8.0----29.94- 72.7 80.2----
2024-06-14 07:12 amNNW 6.0 8.9----29.93- 72.1 80.2----
2024-06-14 07:06 amNNW 7.0 8.9----29.94- 72.0 80.1----
2024-06-14 07:00 amNNW 6.0 8.9----29.94+0.02 71.8 80.1----
2024-06-14 06:54 amNNW 6.0 8.0----29.93- 71.6 80.2----
2024-06-14 06:48 amNNW 7.0 11.1----29.93- 71.8 80.2----
2024-06-14 06:42 am N 8.0 11.1----29.93- 71.8 80.2----
2024-06-14 06:36 am N 8.9 11.1----29.93- 71.4 80.2----
2024-06-14 06:30 am N 7.0 9.9----29.93- 71.2 80.4----
2024-06-14 06:24 amNNW 8.0 9.9----29.93- 70.7 80.2----
2024-06-14 06:18 amNNW 8.0 11.1----29.93- 70.7 80.2----
2024-06-14 06:12 amNNW 7.0 9.9----29.93- 70.5 80.2----
2024-06-14 06:06 amNNW 8.0 11.1----29.92- 70.5 80.2----
2024-06-14 06:00 am-------29.92+0.01- 80.2----
2024-06-14 05:54 am-------29.92-- 80.4----
2024-06-14 05:48 amNNW 8.0 9.9----29.92- 70.7 80.4----
2024-06-14 05:42 amNNW 8.0 12.0----29.92- 70.7 80.4----
2024-06-14 05:36 amNNW 8.0 11.1----29.92- 70.9 80.4----
2024-06-14 05:30 amNNW 8.0 11.1----29.92- 70.9 80.4----
2024-06-14 05:24 am N 6.0 8.9----29.92- 71.1 80.4----
2024-06-14 05:18 amNNW 6.0 8.0----29.92- 70.9 80.4----
2024-06-14 05:12 am N 7.0 11.1----29.92- 71.1 80.4----
2024-06-14 05:06 am N 6.0 9.9----29.92- 71.1 80.4----
2024-06-14 05:00 am N 6.0 11.1----29.92+0.00 71.2 80.4----
2024-06-14 04:54 am N 6.0 12.0----29.91- 71.1 80.4----
2024-06-14 04:48 am N 7.0 8.9----29.91- 70.9 80.4----
2024-06-14 04:42 am N 7.0 8.9----29.91- 71.1 80.4----
2024-06-14 04:36 am N 7.0 9.9----29.91- 71.2 80.4----
2024-06-14 04:30 amNNW 8.0 9.9----29.92- 70.9 80.4----
2024-06-14 04:24 amNNW 6.0 8.9----29.91- 71.4 80.4----
2024-06-14 04:18 am N 6.0 8.9----29.91- 72.1 80.4----
2024-06-14 04:12 am N 7.0 8.0----29.91- 72.0 80.4----
2024-06-14 04:06 am N 7.0 8.9----29.91- 71.4 80.4----
2024-06-14 04:00 am N 6.0 8.9----29.92-0.01 71.6 80.4----
2024-06-14 03:54 amNNW 7.0 8.9----29.92- 71.6 80.4----
2024-06-14 03:48 amNNW 7.0 9.9----29.92- 72.0 80.4----
2024-06-14 03:42 am N 6.0 8.9----29.92- 72.3 80.4----
2024-06-14 03:36 am N 6.0 8.0----29.91- 72.3 80.4----
2024-06-14 03:30 am N 5.1 8.9----29.91- 72.3 80.4----
2024-06-14 03:24 am N 6.0 8.9----29.91- 72.3 80.6----
2024-06-14 03:18 amNNW 7.0 8.9----29.91- 72.5 80.6----
2024-06-14 03:12 am N 7.0 9.9----29.91- 72.7 80.6----
2024-06-14 03:06 am N 6.0 8.9----29.91- 73.2 80.6----
2024-06-14 03:00 am N 6.0 8.9----29.91-0.03 73.6 80.6----
2024-06-14 02:54 am N 7.0 8.9----29.91- 74.1 80.6----
2024-06-14 02:48 am N 6.0 7.0----29.91- 74.5 80.6----
2024-06-14 02:42 amNNE 6.0 8.0----29.91- 74.7 80.6----
2024-06-14 02:36 amNNE 6.0 8.0----29.91- 74.7 80.6----
2024-06-14 02:30 amNNE 6.0 7.0----29.92- 74.5 80.6----
2024-06-14 02:24 amNNE 6.0 8.0----29.92- 74.3 80.6----
2024-06-14 02:18 am N 6.0 8.0----29.92- 74.3 80.6----
2024-06-14 02:12 am N 7.0 8.9----29.92- 74.3 80.6----
2024-06-14 02:06 am N 6.0 8.9----29.92- 74.3 80.6----
2024-06-14 02:00 am N 6.0 8.9----29.92-0.02 74.5 80.6----
2024-06-14 01:54 am N 8.0 9.9----29.92- 74.5 80.6----
2024-06-14 01:48 am N 7.0 8.9----29.92- 74.7 80.6----
2024-06-14 01:42 am N 7.0 8.0----29.92- 75.0 80.6----
2024-06-14 01:36 am N 5.1 6.0----29.92- 75.0 80.6----
2024-06-14 01:30 am N 5.1 8.0----29.93- 75.0 80.6----
2024-06-14 01:24 am N 7.0 8.9----29.93- 76.3 80.6----
2024-06-14 01:18 amNNE 7.0 12.0----29.93-- 80.6----
2024-06-14 01:12 am NE 11.1 13.0----29.93-- 80.6----
2024-06-14 01:06 am NE 12.0 13.0----29.93-- 80.6----
2024-06-14 01:00 am NE 12.0 13.0----29.93-0.03 77.7 80.6----
2024-06-14 12:54 am NE 12.0 13.0----29.93- 77.5 80.8----
2024-06-14 12:48 am NE 12.0 14.0----29.93- 77.7 80.8----
2024-06-14 12:42 am NE 12.0 13.0----29.93- 77.5 80.8----
2024-06-14 12:36 am NE 8.9 12.0----29.93- 77.5 80.8----
2024-06-14 12:30 am NE 11.1 15.0----29.94- 77.5 80.8----
2024-06-14 12:24 am NE 8.0 9.9----29.94- 77.5 80.8----
2024-06-14 12:18 am NE 9.9 11.1----29.95- 77.7 80.8----
2024-06-14 12:12 am NE 8.0 11.1----29.94- 77.5 80.8----
2024-06-14 12:06 amNNE 8.0 9.9----29.95- 77.5 80.8----
2024-06-14 12:00 amNNE 7.0 13.0----29.94-0.03 77.7 80.6----
2024-06-13 11:54 pm NE 11.1 15.9----29.95- 78.6 80.6----
2024-06-13 11:48 pm NE 8.9 11.1----29.95- 78.4 80.6----
2024-06-13 11:42 pm NE 8.9 11.1----29.95- 78.3 80.8----
2024-06-13 11:36 pmNNE 8.9 11.1----29.95- 78.3 80.8----
2024-06-13 11:30 pm NE 8.0 9.9----29.95- 78.3 80.8----
2024-06-13 11:24 pmNNE 8.0 11.1----29.95- 78.4 80.8----
2024-06-13 11:18 pmNNE 8.0 9.9----29.95- 78.6 80.8----
2024-06-13 11:12 pmNNE 8.0 12.0----29.95- 78.8 80.8----
2024-06-13 11:06 pmNNE 12.0 15.9----29.94- 79.0 80.8----
2024-06-13 11:00 pm NE 13.0 17.1----29.94-0.04 79.3 80.8----
2024-06-13 10:54 pm NE 14.0 17.1----29.95- 79.3 80.8----
2024-06-13 10:48 pmENE 17.1 19.0----29.95- 79.3 80.8----
2024-06-13 10:42 pmENE 17.1 18.1----29.95- 79.3 80.8----
2024-06-13 10:36 pmENE 15.9 18.1----29.95- 79.3 80.8----
2024-06-13 10:30 pmENE 15.9 20.0----29.95- 79.3 80.8----
2024-06-13 10:24 pmENE 18.1 20.0----29.95- 79.3 80.8----
2024-06-13 10:18 pmENE 17.1 19.0----29.96- 79.5 81.0----
2024-06-13 10:12 pmENE 17.1 19.0----29.96- 79.5 80.8----
2024-06-13 10:06 pmENE 18.1 20.0----29.96- 79.5 81.0----
2024-06-13 10:00 pmENE 15.0 19.0----29.96-0.02 79.3 81.0----
2024-06-13 09:54 pmENE 18.1 19.0----29.96- 79.5 81.0----
2024-06-13 09:48 pmENE 15.9 19.0----29.96- 79.5 81.0----
2024-06-13 09:42 pmENE 17.1 21.0----29.96- 79.7 81.0----
2024-06-13 09:36 pmENE 18.1 20.0----29.96- 79.5 81.0----
2024-06-13 09:30 pmENE 15.9 19.0----29.96- 79.5 81.0----
2024-06-13 09:24 pmENE 17.1 20.0----29.97- 79.5 81.0----
2024-06-13 09:18 pmENE 18.1 20.0----29.97- 79.5 81.1----
2024-06-13 09:12 pmENE 17.1 21.0----29.97- 79.5 81.0----
2024-06-13 09:06 pm E 19.0 21.0----29.97- 79.7 81.1----
2024-06-13 09:00 pmENE 19.0 21.0----29.98+0.01 79.5 81.0----
2024-06-13 08:54 pm E 19.0 22.0----29.98- 79.7 81.0----
2024-06-13 08:48 pm E 20.0 22.0----29.98- 79.5 81.0----
2024-06-13 08:42 pmENE 19.0 22.0----29.98- 79.7 81.1----
2024-06-13 08:36 pmENE 19.0 22.0----29.98- 79.5 81.1----
2024-06-13 08:30 pmENE 19.0 22.0----29.98- 79.5 81.1----
2024-06-13 08:24 pmENE 19.0 22.0----29.98- 79.5 81.1----
2024-06-13 08:18 pmENE 18.1 22.0----29.98- 79.5 81.1----
2024-06-13 08:12 pmENE 19.0 22.0----29.98- 79.7 81.1----
2024-06-13 08:06 pmENE 19.0 21.0----29.98- 79.5 81.1----
2024-06-13 08:00 pmENE 20.0 22.0----29.98+0.00 79.5 81.1----
2024-06-13 07:54 pmENE 22.0 24.1----29.98- 79.5 81.1----
2024-06-13 07:48 pmENE 18.1 22.9----29.98- 79.5 81.1----
2024-06-13 07:42 pmENE 21.0 24.1----29.98- 79.5 81.1----
2024-06-13 07:36 pmENE 21.0 24.1----29.98- 79.5 81.1----
2024-06-13 07:30 pmENE 21.0 22.9----29.98- 79.7 81.3----
2024-06-13 07:24 pmENE 21.0 24.1----29.98- 79.7 81.3----
2024-06-13 07:00 pmENE 19.0 24.1----29.98-0.01- 81.3----
2024-06-13 06:54 pmENE 21.0 22.9----29.98-- 81.3----
2024-06-13 06:48 pm E 21.0 24.1----29.98-------
2024-06-13 06:42 pm E 20.0 21.0----29.98-------
2024-06-13 06:36 pmENE 21.0 22.9----29.97-------
2024-06-13 06:30 pm E 19.0 22.0----29.97- 79.7 81.3----
2024-06-13 06:24 pmENE 18.1 22.0----29.97- 79.9 81.3----
2024-06-13 06:18 pm E 20.0 21.0----29.97- 79.7 81.3----
2024-06-13 06:12 pm E 19.0 21.0----29.97- 79.7 81.3----
2024-06-13 06:06 pm E 18.1 21.0----29.97- 79.7 81.3----
2024-06-13 06:00 pm E 20.0 22.0----29.97-0.02- 81.3----
2024-06-13 05:54 pmENE 19.0 21.0----29.97-- 81.3----
2024-06-13 05:48 pm E 17.1 22.0----29.97- 79.7 81.3----
2024-06-13 05:42 pm E 20.0 21.0----29.97- 79.7 81.3----
2024-06-13 05:36 pmENE 18.1 22.0----29.97- 79.9 81.3----
2024-06-13 05:30 pmENE 20.0 21.0----29.97- 79.9 81.1----
2024-06-13 05:24 pmENE 19.0 22.0----29.98- 79.7 81.3----
2024-06-13 05:18 pmENE 20.0 22.0----29.97-- 81.3----
2024-06-13 05:12 pm E 19.0 22.9----29.97-- 81.3----
2024-06-13 05:06 pm E 19.0 22.9----29.97-- 81.3----
2024-06-13 05:00 pmENE 19.0 22.0----29.98-0.03 79.7 81.3----
2024-06-13 04:54 pm E 19.0 22.0----29.98- 79.7 81.3----
2024-06-13 04:48 pmENE 19.0 22.9----29.98- 79.9 81.3----
2024-06-13 04:42 pm E 20.0 22.9----29.98- 79.9 81.3----
2024-06-13 04:36 pm E 20.0 22.0----29.98- 79.9 81.3----
2024-06-13 04:30 pmENE 20.0 22.0----29.98- 79.9 81.3----
2024-06-13 04:24 pm E 19.0 22.9----29.98- 79.9 81.3----
2024-06-13 04:18 pm E 19.0 22.0----29.99-- 81.1----
2024-06-13 04:12 pm E 21.0 25.1----29.98-- 81.1----
2024-06-13 04:06 pm E 21.0 24.1----29.98-- 81.1----
2024-06-13 04:00 pm E 19.0 24.1----29.99-0.01 79.9 81.1----
2024-06-13 03:54 pm E 22.9 24.1----29.99- 80.1 81.1----
2024-06-13 03:48 pm E 20.0 24.1----29.99- 79.9 81.1----
2024-06-13 03:42 pm E 21.0 22.9----29.99- 79.7 81.1----
2024-06-13 03:36 pm E 19.0 22.9----29.99- 79.9 81.1----
2024-06-13 03:30 pm E 20.0 22.9----29.99-- 81.1----
2024-06-13 03:24 pmENE 20.0 22.9----29.99-- 81.1----
2024-06-13 03:18 pmENE 17.1 22.0----29.99- 79.9 81.1----
2024-06-13 03:12 pm E 19.0 22.0----29.99- 79.9 81.1----
2024-06-13 03:06 pm E 19.0 22.9----29.99- 79.9 81.0----
2024-06-13 03:00 pm E 21.0 25.1----29.99- 79.7 81.0----
2024-06-13 02:54 pm E 21.0 24.1----29.99- 79.7 81.0----
2024-06-13 02:48 pm E 20.0 22.9----29.99-- 81.0----
2024-06-13 02:42 pm E 20.0 25.1----29.99-- 81.0----
2024-06-13 02:36 pm E 20.0 24.1----29.99-- 81.0----
2024-06-13 02:30 pm E 20.0 25.1----29.99-- 81.0----
2024-06-13 02:24 pm E 22.0 24.1----30.00-- 81.0----
2024-06-13 02:18 pm E 21.0 22.9----30.00- 79.9 81.0----
2024-06-13 02:12 pm E 22.0 25.1----30.00- 79.9 81.0----
2024-06-13 02:06 pm E 20.0 22.9----30.00- 79.7 81.0----
2024-06-13 02:00 pm E 21.0 24.1----30.00+0.00- 81.0----
2024-06-13 01:54 pm E 22.0 26.0----30.00-- 81.0----